id;terrestrial_date;sol;ls;month;min_temp;max_temp;pressure;wind_speed;atmo_opacity
1895;27/2/2018;1977;135;Month 5;-77;-10;727;NaN;Sunny
1893;26/2/2018;1976;135;Month 5;-77;-10;728;NaN;Sunny
1894;25/2/2018;1975;134;Month 5;-76;-16;729;NaN;Sunny
1892;24/2/2018;1974;134;Month 5;-77;-13;729;NaN;Sunny
1889;23/2/2018;1973;133;Month 5;-78;-18;730;NaN;Sunny
1891;22/2/2018;1972;133;Month 5;-78;-14;730;NaN;Sunny
1890;21/2/2018;1971;132;Month 5;-78;-13;731;NaN;Sunny
1888;20/2/2018;1970;132;Month 5;-77;-16;731;NaN;Sunny
1887;19/2/2018;1969;131;Month 5;-76;-16;732;NaN;Sunny
1886;18/2/2018;1968;131;Month 5;-76;-19;732;NaN;Sunny
1885;17/2/2018;1967;130;Month 5;-76;-15;734;NaN;Sunny
1884;16/2/2018;1966;130;Month 5;-77;-18;735;NaN;Sunny
1883;15/2/2018;1965;129;Month 5;-76;-12;735;NaN;Sunny
1882;14/2/2018;1964;129;Month 5;-76;-16;736;NaN;Sunny
1881;13/2/2018;1963;128;Month 5;-77;-14;737;NaN;Sunny
1880;12/2/2018;1962;128;Month 5;-78;-14;738;NaN;Sunny
1877;11/2/2018;1961;127;Month 5;-77;-21;740;NaN;Sunny
1876;9/2/2018;1960;127;Month 5;-78;-14;740;NaN;Sunny
1878;8/2/2018;1959;126;Month 5;-78;-15;740;NaN;Sunny
1874;7/2/2018;1958;126;Month 5;-77;-14;741;NaN;Sunny
1875;6/2/2018;1957;125;Month 5;-77;-21;742;NaN;Sunny
1879;5/2/2018;1956;125;Month 5;-79;-14;744;NaN;Sunny
1873;4/2/2018;1955;124;Month 5;-77;-21;745;NaN;Sunny
1872;3/2/2018;1954;124;Month 5;-77;-17;745;NaN;Sunny
1870;2/2/2018;1953;123;Month 5;-78;-22;747;NaN;Sunny
1871;1/2/2018;1952;123;Month 5;-80;-25;748;NaN;Sunny
1869;31/1/2018;1951;122;Month 5;-77;-23;749;NaN;Sunny
1868;30/1/2018;1950;122;Month 5;-79;-15;750;NaN;Sunny
1867;29/1/2018;1949;121;Month 5;-78;-20;751;NaN;Sunny
1866;28/1/2018;1948;121;Month 5;-78;-18;752;NaN;Sunny
1865;27/1/2018;1947;120;Month 5;-78;-19;751;NaN;Sunny
1864;26/1/2018;1946;120;Month 5;-79;-20;753;NaN;Sunny
1862;25/1/2018;1945;119;Month 4;-78;-22;754;NaN;Sunny
1861;24/1/2018;1944;119;Month 4;-80;-21;755;NaN;Sunny
1863;23/1/2018;1943;118;Month 4;-78;-28;756;NaN;Sunny
1860;22/1/2018;1942;118;Month 4;-78;-27;757;NaN;Sunny
1856;21/1/2018;1941;117;Month 4;-77;-20;758;NaN;Sunny
1858;20/1/2018;1940;117;Month 4;-77;-19;759;NaN;Sunny
1857;19/1/2018;1939;116;Month 4;-78;-20;760;NaN;Sunny
1859;18/1/2018;1938;116;Month 4;-78;-24;762;NaN;Sunny
1854;17/1/2018;1937;116;Month 4;-80;-22;763;NaN;Sunny
1855;16/1/2018;1936;115;Month 4;-79;-20;764;NaN;Sunny
1853;15/1/2018;1935;115;Month 4;-80;-21;765;NaN;Sunny
1851;14/1/2018;1934;114;Month 4;-79;-21;766;NaN;Sunny
1852;13/1/2018;1933;114;Month 4;-78;-23;767;NaN;Sunny
1850;12/1/2018;1932;113;Month 4;-79;-24;768;NaN;Sunny
1849;11/1/2018;1931;113;Month 4;-79;-22;770;NaN;Sunny
1848;10/1/2018;1930;112;Month 4;-79;-24;770;NaN;Sunny
1846;9/1/2018;1929;112;Month 4;-79;-26;771;NaN;Sunny
1847;8/1/2018;1928;111;Month 4;-78;-24;773;NaN;Sunny
1845;7/1/2018;1927;111;Month 4;-79;-24;774;NaN;Sunny
1843;6/1/2018;1926;110;Month 4;-80;-24;775;NaN;Sunny
1844;5/1/2018;1925;110;Month 4;-79;-19;777;NaN;Sunny
1841;3/1/2018;1924;109;Month 4;-78;-21;777;NaN;Sunny
1842;2/1/2018;1923;109;Month 4;-77;-23;778;NaN;Sunny
1840;1/1/2018;1922;108;Month 4;-79;-24;780;NaN;Sunny
1838;31/12/2017;1921;108;Month 4;-78;-19;781;NaN;Sunny
1837;30/12/2017;1920;108;Month 4;-77;-25;782;NaN;Sunny
1836;29/12/2017;1919;107;Month 4;-77;-26;783;NaN;Sunny
1839;28/12/2017;1918;107;Month 4;-77;-18;784;NaN;Sunny
1831;27/12/2017;1917;106;Month 4;-80;-19;786;NaN;Sunny
1829;26/12/2017;1916;106;Month 4;-79;-22;787;NaN;Sunny
1835;25/12/2017;1915;105;Month 4;-78;-23;788;NaN;Sunny
1834;24/12/2017;1914;105;Month 4;-78;-21;790;NaN;Sunny
1830;23/12/2017;1913;104;Month 4;-79;-27;791;NaN;Sunny
1832;22/12/2017;1912;104;Month 4;-80;-25;791;NaN;Sunny
1833;21/12/2017;1911;103;Month 4;-79;-22;792;NaN;Sunny
1828;20/12/2017;1910;103;Month 4;-80;-23;794;NaN;Sunny
1827;19/12/2017;1909;102;Month 4;-80;-27;795;NaN;Sunny
1826;18/12/2017;1908;102;Month 4;-79;-28;796;NaN;Sunny
1825;17/12/2017;1907;101;Month 4;-79;-29;798;NaN;Sunny
1824;16/12/2017;1906;101;Month 4;-79;-23;799;NaN;Sunny
1823;15/12/2017;1905;101;Month 4;-80;-22;800;NaN;Sunny
1822;14/12/2017;1904;100;Month 4;-79;-27;801;NaN;Sunny
1821;13/12/2017;1903;100;Month 4;-78;-25;803;NaN;Sunny
1820;12/12/2017;1902;99;Month 4;-79;-27;804;NaN;Sunny
1819;11/12/2017;1901;99;Month 4;-81;-28;806;NaN;Sunny
1818;10/12/2017;1900;98;Month 4;-81;-25;807;NaN;Sunny
1815;9/12/2017;1899;98;Month 4;-81;-23;808;NaN;Sunny
1816;8/12/2017;1898;97;Month 4;-81;-27;810;NaN;Sunny
1817;7/12/2017;1897;97;Month 4;-80;-27;811;NaN;Sunny
1813;6/12/2017;1896;96;Month 4;-79;-23;812;NaN;Sunny
1814;5/12/2017;1895;96;Month 4;-78;-29;814;NaN;Sunny
1811;4/12/2017;1894;96;Month 4;-79;-28;815;NaN;Sunny
1812;3/12/2017;1893;95;Month 4;-79;-25;816;NaN;Sunny
1809;2/12/2017;1892;95;Month 4;-81;-29;817;NaN;Sunny
1810;1/12/2017;1891;94;Month 4;-80;-25;819;NaN;Sunny
1808;30/11/2017;1890;94;Month 4;-79;-28;821;NaN;Sunny
1806;29/11/2017;1889;93;Month 4;-80;-28;822;NaN;Sunny
1807;27/11/2017;1888;93;Month 4;-79;-25;823;NaN;Sunny
1802;26/11/2017;1887;92;Month 4;-79;-26;824;NaN;Sunny
1805;25/11/2017;1886;92;Month 4;-79;-27;826;NaN;Sunny
1804;24/11/2017;1885;91;Month 4;-79;-30;827;NaN;Sunny
1799;23/11/2017;1884;91;Month 4;-79;-29;829;NaN;Sunny
1800;22/11/2017;1883;91;Month 4;-78;-28;830;NaN;Sunny
1801;21/11/2017;1882;90;Month 4;-78;-31;831;NaN;Sunny
1803;20/11/2017;1881;90;Month 4;-79;-28;832;NaN;Sunny
1798;19/11/2017;1880;89;Month 3;-79;-30;833;NaN;Sunny
1796;18/11/2017;1879;89;Month 3;-79;-31;834;NaN;Sunny
1795;17/11/2017;1878;88;Month 3;-79;-29;835;NaN;Sunny
1797;16/11/2017;1877;88;Month 3;-79;-30;837;NaN;Sunny
1794;15/11/2017;1876;87;Month 3;-79;-29;838;NaN;Sunny
1793;14/11/2017;1875;87;Month 3;-79;-23;839;NaN;Sunny
1792;13/11/2017;1874;86;Month 3;-80;-29;840;NaN;Sunny
1790;12/11/2017;1873;86;Month 3;-79;-25;842;NaN;Sunny
1791;11/11/2017;1872;86;Month 3;-79;-29;843;NaN;Sunny
1789;10/11/2017;1871;85;Month 3;-80;-30;844;NaN;Sunny
1788;9/11/2017;1870;85;Month 3;-81;-29;845;NaN;Sunny
1787;8/11/2017;1869;84;Month 3;-81;-24;846;NaN;Sunny
1786;7/11/2017;1868;84;Month 3;-80;-24;848;NaN;Sunny
1784;6/11/2017;1867;83;Month 3;-78;-24;848;NaN;Sunny
1785;5/11/2017;1866;83;Month 3;-80;-28;850;NaN;Sunny
1783;4/11/2017;1865;82;Month 3;-80;-31;852;NaN;Sunny
1782;3/11/2017;1864;82;Month 3;-82;-22;852;NaN;Sunny
1781;2/11/2017;1863;81;Month 3;-80;-30;853;NaN;Sunny
1777;1/11/2017;1862;81;Month 3;-81;-30;854;NaN;Sunny
1780;31/10/2017;1861;81;Month 3;-79;-29;855;NaN;Sunny
1778;30/10/2017;1860;80;Month 3;-80;-31;857;NaN;Sunny
1779;29/10/2017;1859;80;Month 3;-79;-30;857;NaN;Sunny
1775;28/10/2017;1858;79;Month 3;-81;-28;857;NaN;Sunny
1776;27/10/2017;1857;79;Month 3;-80;-30;858;NaN;Sunny
1774;26/10/2017;1856;78;Month 3;-80;-28;859;NaN;Sunny
1773;25/10/2017;1855;78;Month 3;-78;-32;861;NaN;Sunny
1772;24/10/2017;1854;77;Month 3;-80;-26;861;NaN;Sunny
1771;23/10/2017;1853;77;Month 3;-80;-32;862;NaN;Sunny
1769;22/10/2017;1852;77;Month 3;-80;-31;863;NaN;Sunny
1767;20/10/2017;1851;76;Month 3;-87;-30;864;NaN;Sunny
1768;19/10/2017;1850;76;Month 3;-80;-30;864;NaN;Sunny
1770;18/10/2017;1849;75;Month 3;-80;-24;864;NaN;Sunny
1766;17/10/2017;1848;75;Month 3;-80;-28;865;NaN;Sunny
1764;16/10/2017;1847;74;Month 3;-80;-30;866;NaN;Sunny
1765;15/10/2017;1846;74;Month 3;-80;-30;868;NaN;Sunny
1763;14/10/2017;1845;73;Month 3;-80;-29;868;NaN;Sunny
1762;13/10/2017;1844;73;Month 3;-81;-28;869;NaN;Sunny
1760;12/10/2017;1843;72;Month 3;-80;-29;869;NaN;Sunny
1761;11/10/2017;1842;72;Month 3;-79;-27;869;NaN;Sunny
1759;10/10/2017;1841;72;Month 3;-77;-32;870;NaN;Sunny
1758;9/10/2017;1840;71;Month 3;-77;-29;871;NaN;Sunny
1757;8/10/2017;1839;71;Month 3;-80;-30;872;NaN;Sunny
1754;7/10/2017;1838;70;Month 3;-79;-27;872;NaN;Sunny
1756;6/10/2017;1837;70;Month 3;-81;-28;872;NaN;Sunny
1755;5/10/2017;1836;69;Month 3;-81;-29;873;NaN;Sunny
1753;4/10/2017;1835;69;Month 3;-80;-31;873;NaN;Sunny
1752;3/10/2017;1834;68;Month 3;-80;-25;875;NaN;Sunny
1751;2/10/2017;1833;68;Month 3;-81;-30;875;NaN;Sunny
1750;1/10/2017;1832;68;Month 3;-84;-30;875;NaN;Sunny
1747;30/9/2017;1831;67;Month 3;-80;-26;876;NaN;Sunny
1748;29/9/2017;1830;67;Month 3;-80;-23;877;NaN;Sunny
1749;28/9/2017;1829;66;Month 3;-78;-29;877;NaN;Sunny
1746;27/9/2017;1828;66;Month 3;-80;-27;878;NaN;Sunny
1745;26/9/2017;1827;65;Month 3;-80;-28;879;NaN;Sunny
1744;25/9/2017;1826;65;Month 3;-80;-26;878;NaN;Sunny
1741;24/9/2017;1825;64;Month 3;-80;-27;878;NaN;Sunny
1742;23/9/2017;1824;64;Month 3;-80;-28;879;NaN;Sunny
1743;22/9/2017;1823;64;Month 3;-80;-28;879;NaN;Sunny
1739;21/9/2017;1822;63;Month 3;-78;-27;881;NaN;Sunny
1740;20/9/2017;1821;63;Month 3;-81;-29;882;NaN;Sunny
1738;19/9/2017;1820;62;Month 3;-79;-29;881;NaN;Sunny
1737;18/9/2017;1819;62;Month 3;-82;-28;880;NaN;Sunny
1736;17/9/2017;1818;61;Month 3;-81;-25;881;NaN;Sunny
1735;16/9/2017;1817;61;Month 3;-80;-29;882;NaN;Sunny
1734;15/9/2017;1816;60;Month 3;-82;-30;882;NaN;Sunny
1733;13/9/2017;1815;60;Month 3;-81;-29;881;NaN;Sunny
1732;12/9/2017;1814;59;Month 2;-80;-26;881;NaN;Sunny
1731;11/9/2017;1813;59;Month 2;-80;-27;881;NaN;Sunny
1730;10/9/2017;1812;59;Month 2;-79;-23;882;NaN;Sunny
1727;9/9/2017;1811;58;Month 2;-79;-25;882;NaN;Sunny
1729;8/9/2017;1810;58;Month 2;-78;-25;883;NaN;Sunny
1728;7/9/2017;1809;57;Month 2;-80;-25;884;NaN;Sunny
1726;6/9/2017;1808;57;Month 2;-79;-26;884;NaN;Sunny
1725;5/9/2017;1807;56;Month 2;-78;-23;884;NaN;Sunny
1724;4/9/2017;1806;56;Month 2;-80;-25;884;NaN;Sunny
1721;3/9/2017;1805;55;Month 2;-78;-27;883;NaN;Sunny
1720;2/9/2017;1804;55;Month 2;-78;-29;883;NaN;Sunny
1723;1/9/2017;1803;55;Month 2;-78;-25;882;NaN;Sunny
1722;31/8/2017;1802;54;Month 2;-79;-26;882;NaN;Sunny
1719;30/8/2017;1801;54;Month 2;-80;-21;882;NaN;Sunny
1718;29/8/2017;1800;53;Month 2;-80;-24;883;NaN;Sunny
1717;28/8/2017;1799;53;Month 2;-78;-24;883;NaN;Sunny
1716;27/8/2017;1798;52;Month 2;-79;-25;883;NaN;Sunny
1713;26/8/2017;1797;52;Month 2;-79;-27;884;NaN;Sunny
1715;25/8/2017;1796;51;Month 2;-80;-23;883;NaN;Sunny
1714;24/8/2017;1795;51;Month 2;-81;-19;882;NaN;Sunny
1712;23/8/2017;1794;50;Month 2;-80;-25;883;NaN;Sunny
1711;22/8/2017;1793;50;Month 2;-80;-22;883;NaN;Sunny
1710;21/8/2017;1792;50;Month 2;-80;-27;883;NaN;Sunny
1709;20/8/2017;1791;49;Month 2;-79;-23;882;NaN;Sunny
1707;19/8/2017;1790;49;Month 2;-81;-22;882;NaN;Sunny
1708;18/8/2017;1789;48;Month 2;-79;-19;881;NaN;Sunny
1706;17/8/2017;1788;48;Month 2;-79;-21;881;NaN;Sunny
1705;16/8/2017;1787;47;Month 2;-79;-26;881;NaN;Sunny
1704;14/8/2017;1785;46;Month 2;-77;-20;881;NaN;Sunny
1702;13/8/2017;1784;46;Month 2;-80;-22;883;NaN;Sunny
1703;12/8/2017;1783;45;Month 2;-79;-23;879;NaN;Sunny
1701;11/8/2017;1782;45;Month 2;-78;-22;878;NaN;Sunny
1700;10/8/2017;1781;45;Month 2;-78;-22;879;NaN;Sunny
1699;9/8/2017;1780;44;Month 2;-77;-20;879;NaN;Sunny
1698;7/8/2017;1779;44;Month 2;-78;-23;878;NaN;Sunny
1697;6/8/2017;1778;43;Month 2;-81;-23;877;NaN;Sunny
1695;5/8/2017;1777;43;Month 2;-79;-22;877;NaN;Sunny
1696;4/8/2017;1776;42;Month 2;-79;-24;877;NaN;Sunny
1694;3/8/2017;1775;42;Month 2;-80;-22;877;NaN;Sunny
1693;2/8/2017;1774;41;Month 2;-79;-18;877;NaN;Sunny
1685;1/8/2017;1773;41;Month 2;-78;-22;876;NaN;Sunny
1681;31/7/2017;1772;40;Month 2;-78;-20;876;NaN;Sunny
1692;30/7/2017;1771;40;Month 2;-79;-22;876;NaN;Sunny
1686;29/7/2017;1770;39;Month 2;-79;-19;875;NaN;Sunny
1689;28/7/2017;1769;39;Month 2;-76;-23;875;NaN;Sunny
1683;27/7/2017;1768;39;Month 2;-78;-22;875;NaN;Sunny
1691;26/7/2017;1767;38;Month 2;-77;-22;874;NaN;Sunny
1688;25/7/2017;1766;38;Month 2;-79;-17;873;NaN;Sunny
1690;24/7/2017;1765;37;Month 2;-77;-20;873;NaN;Sunny
1682;23/7/2017;1764;37;Month 2;-79;-18;872;NaN;Sunny
1680;22/7/2017;1763;36;Month 2;-78;-20;873;NaN;Sunny
1687;21/7/2017;1762;36;Month 2;-77;-20;872;NaN;Sunny
1684;20/7/2017;1761;35;Month 2;-77;-20;872;NaN;Sunny
1679;19/7/2017;1760;35;Month 2;-78;-18;872;NaN;Sunny
1678;18/7/2017;1759;34;Month 2;-77;-20;871;NaN;Sunny
1677;17/7/2017;1758;34;Month 2;-78;-20;871;NaN;Sunny
1676;16/7/2017;1757;33;Month 2;-78;-21;871;NaN;Sunny
1675;15/7/2017;1756;33;Month 2;-78;-23;871;NaN;Sunny
1674;14/7/2017;1755;32;Month 2;-77;-22;870;NaN;Sunny
1673;13/7/2017;1754;32;Month 2;-78;-20;870;NaN;Sunny
1672;12/7/2017;1753;32;Month 2;-76;-16;868;NaN;Sunny
1671;11/7/2017;1752;31;Month 2;-80;-16;867;NaN;Sunny
1670;10/7/2017;1751;31;Month 2;-78;-23;867;NaN;Sunny
1669;9/7/2017;1750;30;Month 2;-77;-17;867;NaN;Sunny
1667;8/7/2017;1749;30;Month 2;-76;-21;867;NaN;Sunny
1668;7/7/2017;1748;29;Month 1;-79;-19;867;NaN;Sunny
1666;6/7/2017;1747;29;Month 1;-79;-16;866;NaN;Sunny
1665;5/7/2017;1746;28;Month 1;-76;-16;866;NaN;Sunny
1664;4/7/2017;1745;28;Month 1;-78;-19;865;NaN;Sunny
1663;3/7/2017;1744;27;Month 1;-78;-22;863;NaN;Sunny
1660;2/7/2017;1743;27;Month 1;-78;-21;863;NaN;Sunny
1661;30/6/2017;1742;26;Month 1;-77;-12;865;NaN;Sunny
1659;29/6/2017;1741;26;Month 1;-78;-18;863;NaN;Sunny
1662;28/6/2017;1740;25;Month 1;-78;-21;861;NaN;Sunny
1658;27/6/2017;1739;25;Month 1;-77;-22;861;NaN;Sunny
1657;26/6/2017;1738;24;Month 1;-78;-22;861;NaN;Sunny
1656;25/6/2017;1737;24;Month 1;-78;-19;861;NaN;Sunny
1654;24/6/2017;1736;23;Month 1;-77;-16;860;NaN;Sunny
1653;23/6/2017;1735;23;Month 1;-78;-13;861;NaN;Sunny
1655;22/6/2017;1734;23;Month 1;-78;-22;859;NaN;Sunny
1652;21/6/2017;1733;22;Month 1;-77;-21;859;NaN;Sunny
1651;20/6/2017;1732;22;Month 1;-78;-24;858;NaN;Sunny
1649;19/6/2017;1731;21;Month 1;-78;-24;857;NaN;Sunny
1650;18/6/2017;1730;21;Month 1;-77;-20;858;NaN;Sunny
1646;17/6/2017;1729;20;Month 1;-76;-19;858;NaN;Sunny
1648;16/6/2017;1728;20;Month 1;-76;-16;855;NaN;Sunny
1647;15/6/2017;1727;19;Month 1;-75;-13;855;NaN;Sunny
1645;14/6/2017;1726;19;Month 1;-76;-17;855;NaN;Sunny
1644;13/6/2017;1725;18;Month 1;-79;-18;857;NaN;Sunny
1643;12/6/2017;1724;18;Month 1;-77;-21;856;NaN;Sunny
1642;11/6/2017;1723;17;Month 1;-76;-16;854;NaN;Sunny
1640;10/6/2017;1722;17;Month 1;-77;-13;854;NaN;Sunny
1641;9/6/2017;1721;16;Month 1;-76;-16;852;NaN;Sunny
1638;8/6/2017;1720;16;Month 1;-76;-17;853;NaN;Sunny
1639;7/6/2017;1719;15;Month 1;-77;-19;853;NaN;Sunny
1637;6/6/2017;1718;15;Month 1;-77;-16;852;NaN;Sunny
1636;5/6/2017;1717;14;Month 1;-76;-12;851;NaN;Sunny
1632;4/6/2017;1716;14;Month 1;-76;-10;850;NaN;Sunny
1634;3/6/2017;1715;13;Month 1;-77;-10;851;NaN;Sunny
1633;2/6/2017;1714;13;Month 1;-77;-13;849;NaN;Sunny
1635;1/6/2017;1713;12;Month 1;-75;-10;850;NaN;Sunny
1630;31/5/2017;1712;12;Month 1;-77;-11;849;NaN;Sunny
1631;30/5/2017;1711;11;Month 1;-75;-13;848;NaN;Sunny
1629;29/5/2017;1710;11;Month 1;-76;-12;848;NaN;Sunny
1628;28/5/2017;1709;10;Month 1;-76;-14;847;NaN;Sunny
1626;27/5/2017;1708;10;Month 1;-76;-13;846;NaN;Sunny
1627;26/5/2017;1707;9;Month 1;-77;-12;846;NaN;Sunny
1624;24/5/2017;1706;9;Month 1;-77;-17;845;NaN;Sunny
1623;23/5/2017;1705;8;Month 1;-76;-11;845;NaN;Sunny
1625;22/5/2017;1704;8;Month 1;-77;-14;844;NaN;Sunny
1622;21/5/2017;1703;7;Month 1;-76;-12;843;NaN;Sunny
1621;20/5/2017;1702;7;Month 1;-75;-12;842;NaN;Sunny
1620;19/5/2017;1701;6;Month 1;-76;-12;841;NaN;Sunny
1619;18/5/2017;1700;6;Month 1;-76;-14;842;NaN;Sunny
1617;17/5/2017;1699;5;Month 1;-76;-12;843;NaN;Sunny
1618;16/5/2017;1698;5;Month 1;-77;-12;842;NaN;Sunny
1616;15/5/2017;1697;4;Month 1;-77;-15;841;NaN;Sunny
1615;14/5/2017;1696;4;Month 1;-75;-17;841;NaN;Sunny
1611;13/5/2017;1695;3;Month 1;-77;-13;840;NaN;Sunny
1613;12/5/2017;1694;3;Month 1;-76;-12;840;NaN;Sunny
1612;11/5/2017;1693;2;Month 1;-76;-12;840;NaN;Sunny
1614;10/5/2017;1692;2;Month 1;-62;-11;820;NaN;Sunny
1609;8/5/2017;1690;1;Month 1;-76;-14;840;NaN;Sunny
1610;7/5/2017;1689;0;Month 1;-75;-10;840;NaN;Sunny
1606;6/5/2017;1688;0;Month 1;-76;-13;840;NaN;Sunny
1608;5/5/2017;1687;359;Month 12;-75;-11;838;NaN;Sunny
1607;4/5/2017;1686;359;Month 12;-75;-13;838;NaN;Sunny
1605;3/5/2017;1685;358;Month 12;-77;-14;838;NaN;Sunny
1604;2/5/2017;1684;358;Month 12;-75;-14;837;NaN;Sunny
1600;1/5/2017;1683;357;Month 12;-75;-15;837;NaN;Sunny
1603;30/4/2017;1682;357;Month 12;-76;-13;839;NaN;Sunny
1602;29/4/2017;1681;356;Month 12;-74;-12;837;NaN;Sunny
1601;28/4/2017;1680;356;Month 12;-74;-11;835;NaN;Sunny
1599;27/4/2017;1679;355;Month 12;-75;-12;836;NaN;Sunny
1598;26/4/2017;1678;355;Month 12;-74;-11;836;NaN;Sunny
1597;25/4/2017;1677;354;Month 12;-74;-8;835;NaN;Sunny
1596;24/4/2017;1676;354;Month 12;-76;-11;837;NaN;Sunny
1595;23/4/2017;1675;353;Month 12;-75;-6;835;NaN;Sunny
1593;22/4/2017;1674;352;Month 12;-75;-6;835;NaN;Sunny
1594;21/4/2017;1673;352;Month 12;-75;-6;836;NaN;Sunny
1592;20/4/2017;1672;351;Month 12;-74;-5;833;NaN;Sunny
1591;19/4/2017;1671;351;Month 12;-76;-7;832;NaN;Sunny
1590;18/4/2017;1670;350;Month 12;-76;-12;834;NaN;Sunny
1589;16/4/2017;1669;350;Month 12;-74;-12;833;NaN;Sunny
1587;15/4/2017;1668;349;Month 12;-77;-4;831;NaN;Sunny
1588;14/4/2017;1667;349;Month 12;-76;-9;833;NaN;Sunny
1582;13/4/2017;1666;348;Month 12;-76;-8;834;NaN;Sunny
1585;12/4/2017;1665;348;Month 12;-76;-7;833;NaN;Sunny
1586;11/4/2017;1664;347;Month 12;-74;-8;832;NaN;Sunny
1584;10/4/2017;1663;347;Month 12;-74;-6;832;NaN;Sunny
1583;9/4/2017;1662;346;Month 12;-75;-3;831;NaN;Sunny
1580;8/4/2017;1661;346;Month 12;-75;-5;831;NaN;Sunny
1581;7/4/2017;1660;345;Month 12;-74;-5;832;NaN;Sunny
1579;6/4/2017;1659;345;Month 12;-77;-7;832;NaN;Sunny
1577;5/4/2017;1658;344;Month 12;-77;-8;835;NaN;Sunny
1578;4/4/2017;1657;343;Month 12;-75;-9;836;NaN;Sunny
1576;3/4/2017;1656;343;Month 12;-75;-3;832;NaN;Sunny
1574;2/4/2017;1655;342;Month 12;-76;-14;831;NaN;Sunny
1575;1/4/2017;1654;342;Month 12;-75;-17;829;NaN;Sunny
1573;31/3/2017;1653;341;Month 12;-75;-15;833;NaN;Sunny
1572;30/3/2017;1652;341;Month 12;-76;-15;834;NaN;Sunny
1571;29/3/2017;1651;340;Month 12;-77;-8;833;NaN;Sunny
1570;28/3/2017;1650;340;Month 12;-75;-8;833;NaN;Sunny
1569;27/3/2017;1649;339;Month 12;-74;-8;830;NaN;Sunny
1568;26/3/2017;1648;339;Month 12;-73;-14;830;NaN;Sunny
1566;25/3/2017;1647;338;Month 12;-73;-3;831;NaN;Sunny
1565;24/3/2017;1646;337;Month 12;-74;-8;831;NaN;Sunny
1567;23/3/2017;1645;337;Month 12;-74;-3;832;NaN;Sunny
1562;22/3/2017;1644;336;Month 12;-74;-10;832;NaN;Sunny
1563;21/3/2017;1643;336;Month 12;-74;-11;832;NaN;Sunny
1564;20/3/2017;1642;335;Month 12;-72;-13;829;NaN;Sunny
1560;19/3/2017;1641;335;Month 12;-72;-6;831;NaN;Sunny
1561;18/3/2017;1640;334;Month 12;-72;-8;832;NaN;Sunny
1558;17/3/2017;1639;334;Month 12;-71;-6;832;NaN;Sunny
1559;16/3/2017;1638;333;Month 12;-73;-9;833;NaN;Sunny
1557;15/3/2017;1637;332;Month 12;-73;-10;833;NaN;Sunny
1556;14/3/2017;1636;332;Month 12;-72;-14;834;NaN;Sunny
1555;13/3/2017;1635;331;Month 12;-73;-7;833;NaN;Sunny
1553;12/3/2017;1634;331;Month 12;-72;-5;834;NaN;Sunny
1554;10/3/2017;1633;330;Month 12;-75;-4;834;NaN;Sunny
1552;9/3/2017;1632;330;Month 12;-72;-4;836;NaN;Sunny
1550;8/3/2017;1631;329;Month 11;-77;-6;837;NaN;Sunny
1551;7/3/2017;1630;328;Month 11;-77;-6;838;NaN;Sunny
1548;6/3/2017;1629;328;Month 11;-74;-8;837;NaN;Sunny
1549;5/3/2017;1628;327;Month 11;-71;-8;839;NaN;Sunny
1547;4/3/2017;1627;327;Month 11;-72;-9;838;NaN;Sunny
1545;3/3/2017;1626;326;Month 11;-71;-11;839;NaN;Sunny
1546;2/3/2017;1625;326;Month 11;-71;-8;839;NaN;Sunny
1543;1/3/2017;1624;325;Month 11;-72;-8;837;NaN;Sunny
1544;28/2/2017;1623;324;Month 11;-71;-10;840;NaN;Sunny
1542;27/2/2017;1622;324;Month 11;-71;-9;841;NaN;Sunny
1541;26/2/2017;1621;323;Month 11;-73;-13;842;NaN;Sunny
1539;25/2/2017;1620;323;Month 11;-70;-9;844;NaN;Sunny
1538;24/2/2017;1619;322;Month 11;-73;-8;841;NaN;Sunny
1540;23/2/2017;1618;322;Month 11;-71;-7;845;NaN;Sunny
1537;22/2/2017;1617;321;Month 11;-72;-8;840;NaN;Sunny
1535;21/2/2017;1616;320;Month 11;-73;-8;848;NaN;Sunny
1536;20/2/2017;1615;320;Month 11;-73;-5;842;NaN;Sunny
1533;19/2/2017;1614;319;Month 11;-73;-8;837;NaN;Sunny
1534;18/2/2017;1613;319;Month 11;-72;-2;846;NaN;Sunny
1532;17/2/2017;1612;318;Month 11;NaN;NaN;NaN;NaN;Sunny
1531;16/2/2017;1611;318;Month 11;NaN;NaN;NaN;NaN;Sunny
1530;15/2/2017;1610;317;Month 11;NaN;NaN;NaN;NaN;Sunny
1529;14/2/2017;1609;316;Month 11;-71;-7;847;NaN;Sunny
1527;13/2/2017;1608;316;Month 11;-72;-8;847;NaN;Sunny
1528;12/2/2017;1607;315;Month 11;-77;-12;846;NaN;Sunny
1525;11/2/2017;1606;315;Month 11;-75;-10;850;NaN;Sunny
1526;10/2/2017;1605;314;Month 11;-73;-13;846;NaN;Sunny
1524;9/2/2017;1604;313;Month 11;-77;-11;850;NaN;Sunny
1523;8/2/2017;1603;313;Month 11;-76;-5;847;NaN;Sunny
1521;7/2/2017;1602;312;Month 11;-77;-5;852;NaN;Sunny
1522;6/2/2017;1601;312;Month 11;-71;-2;853;NaN;Sunny
1520;5/2/2017;1600;311;Month 11;-71;-7;850;NaN;Sunny
1518;4/2/2017;1599;310;Month 11;-72;-7;853;NaN;Sunny
1519;3/2/2017;1598;310;Month 11;-70;-4;849;NaN;Sunny
1517;1/2/2017;1597;309;Month 11;-73;-8;855;NaN;Sunny
1516;31/1/2017;1596;309;Month 11;-74;-6;850;NaN;Sunny
1515;30/1/2017;1595;308;Month 11;-71;-7;855;NaN;Sunny
1514;29/1/2017;1594;307;Month 11;-74;-6;855;NaN;Sunny
1513;28/1/2017;1593;307;Month 11;-72;-1;852;NaN;Sunny
1511;27/1/2017;1592;306;Month 11;-71;0;857;NaN;Sunny
1512;26/1/2017;1591;306;Month 11;-73;-1;852;NaN;Sunny
1509;25/1/2017;1590;305;Month 11;-76;-1;860;NaN;Sunny
1510;24/1/2017;1589;304;Month 11;-72;-2;857;NaN;Sunny
1507;23/1/2017;1588;304;Month 11;-72;0;858;NaN;Sunny
1508;22/1/2017;1587;303;Month 11;-73;-1;860;NaN;Sunny
1504;21/1/2017;1586;303;Month 11;-72;-1;858;NaN;Sunny
1506;20/1/2017;1585;302;Month 11;-76;-2;864;NaN;Sunny
1505;19/1/2017;1584;301;Month 11;-77;-2;860;NaN;Sunny
1502;18/1/2017;1583;301;Month 11;-75;-4;862;NaN;Sunny
1503;17/1/2017;1582;300;Month 11;-74;-1;862;NaN;Sunny
1501;16/1/2017;1581;299;Month 10;-72;-1;862;NaN;Sunny
1497;15/1/2017;1580;299;Month 10;-72;-2;867;NaN;Sunny
1500;14/1/2017;1579;298;Month 10;-73;-3;862;NaN;Sunny
1499;13/1/2017;1578;298;Month 10;-74;-5;868;NaN;Sunny
1498;12/1/2017;1577;297;Month 10;-72;-3;866;NaN;Sunny
1496;11/1/2017;1576;296;Month 10;-72;-1;869;NaN;Sunny
1494;10/1/2017;1575;296;Month 10;-73;0;871;NaN;Sunny
1495;9/1/2017;1574;295;Month 10;-72;4;868;NaN;Sunny
1493;8/1/2017;1573;295;Month 10;-74;-2;872;NaN;Sunny
1489;7/1/2017;1572;294;Month 10;-81;-6;869;NaN;Sunny
1490;6/1/2017;1571;293;Month 10;-70;-3;873;NaN;Sunny
1491;5/1/2017;1570;293;Month 10;-71;-6;873;NaN;Sunny
1492;4/1/2017;1569;292;Month 10;-70;-4;873;NaN;Sunny
1488;3/1/2017;1568;291;Month 10;-71;-5;876;NaN;Sunny
1486;2/1/2017;1567;291;Month 10;-70;-5;872;NaN;Sunny
1487;1/1/2017;1566;290;Month 10;-76;-6;876;NaN;Sunny
1480;31/12/2016;1565;290;Month 10;-72;-6;874;NaN;Sunny
1481;30/12/2016;1564;289;Month 10;-70;-7;877;NaN;Sunny
1483;29/12/2016;1563;288;Month 10;-75;-6;879;NaN;Sunny
1479;28/12/2016;1562;288;Month 10;-73;-5;877;NaN;Sunny
1485;27/12/2016;1561;287;Month 10;-77;-8;877;NaN;Sunny
1482;25/12/2016;1560;286;Month 10;-76;-10;877;NaN;Sunny
1484;24/12/2016;1559;286;Month 10;-76;-7;879;NaN;Sunny
1476;23/12/2016;1558;285;Month 10;-72;-6;880;NaN;Sunny
1475;22/12/2016;1557;284;Month 10;-70;-6;883;NaN;Sunny
1478;21/12/2016;1556;284;Month 10;-72;-5;883;NaN;Sunny
1477;20/12/2016;1555;283;Month 10;-71;-6;883;NaN;Sunny
1473;19/12/2016;1554;283;Month 10;-70;-7;882;NaN;Sunny
1474;18/12/2016;1553;282;Month 10;-77;-9;884;NaN;Sunny
1470;17/12/2016;1552;281;Month 10;-74;-6;886;NaN;Sunny
1471;16/12/2016;1551;281;Month 10;-71;0;886;NaN;Sunny
1472;15/12/2016;1550;280;Month 10;-71;-1;888;NaN;Sunny
1469;14/12/2016;1549;279;Month 10;-76;-2;887;NaN;Sunny
1468;13/12/2016;1548;279;Month 10;-76;-8;887;NaN;Sunny
1466;12/12/2016;1547;278;Month 10;-75;-8;887;NaN;Sunny
1467;11/12/2016;1546;277;Month 10;-73;-7;889;NaN;Sunny
1465;10/12/2016;1545;277;Month 10;-73;3;891;NaN;Sunny
1463;9/12/2016;1544;276;Month 10;-71;1;894;NaN;Sunny
1464;8/12/2016;1543;276;Month 10;-74;-7;896;NaN;Sunny
1462;7/12/2016;1542;275;Month 10;-73;-9;895;NaN;Sunny
1461;6/12/2016;1541;274;Month 10;-76;-8;895;NaN;Sunny
1460;5/12/2016;1540;274;Month 10;-72;-3;896;NaN;Sunny
1459;4/12/2016;1539;273;Month 10;-74;-1;896;NaN;Sunny
1457;3/12/2016;1538;272;Month 10;-73;-3;898;NaN;Sunny